Location: Athabasca
(54.7194°N, 113.2858°W)
Time: 09:20:41
(UTC+00:00)

DOVE 4 - Visible Passes

Search period start: 08 December 2023 00:00
Search period end: 18 December 2023 00:00
Orbit: 582 x 785 km, 97.8° (Epoch: 08 December)

Date Brightness Start Highest point End Pass type
(mag) Time Alt. Az. Time Alt. Az. Time Alt. Az.
08 Dec ? 14:51:37 10° E 14:54:35 17° NE 14:57:27 10° NNE visible
10 Dec ? 14:29:55 10° ENE 14:31:31 12° NE 14:33:05 10° NNE visible
13 Dec ? 14:42:38 10° E 14:44:58 14° NE 14:47:16 10° NNE visible
16 Dec ? 14:55:34 10° E 14:58:25 17° NE 15:01:13 10° NNE visible
